Weather History for KFSD - September, 2013

Change the Weather History Date:

Tuesday, September 24, 2013

  Actual Average Record
Temperature  
Mean Temperature 64 °F 58 °F  
Max Temperature 75 °F 70 °F 89 °F (1901)
Min Temperature 53 °F 45 °F 27 °F (1942)
Degree Days  
Heating Degree Days 1 8  
Month to date heating degree days 55 114  
Since 1 July heating degree days 89 145  
Cooling Degree Days 0 1  
Month to date cooling degree days 109 57  
Year to date cooling degree days 763 682  
Growing Degree Days 15 (Base 50)    
Moisture  
Dew Point 52 °F    
Average Humidity 66    
Maximum Humidity 86    
Minimum Humidity 46    
Precipitation  
Precipitation 0.00 in 0.10 in 1.51 in (2005)
Month to date precipitation 0.29 2.26  
Year to date precipitation 20.71 21.65  
Snow  
Snow 0.00 in 0.00 in 0.00 in ()
Month to date snowfall 0.0 0.0  
Since 1 July snowfall 0.0 0.0  
Since 1 September snowfall 0.0 0.0  
Snow Depth 0.00 in    
Sea Level Pressure  
Sea Level Pressure 29.89 in    
Wind  
Wind Speed 4 mph (East)    
Max Wind Speed 13 mph    
Max Gust Speed 15 mph    
Visibility 10 miles    
Events      
T = Trace of Precipitation, MM = Missing Value Source: NWS Daily Summary

Daily Weather History Graph

Daily Weather History Graph

Search for Another Location

Airport or City:

Trip Planner

Search our weather history database for the weather conditions in past years. The results will help you decide how hot, cold, wet, or windy it might be!

Date:

Astronomy

Sep. 24, 2013 Rise Set
Actual Time 7:16 AM CDT 7:20 PM CDT
Civil Twilight 6:48 AM CDT 7:48 PM CDT
Nautical Twilight 6:14 AM CDT 8:22 PM CDT
Astronomical Twilight 5:40 AM CDT 8:56 PM CDT
Moon 10:29 PM CDT (9/24) 12:41 PM CDT (9/24)
Length of Visible Light 13h 00m
Length of Day
12h 03m
Waning Gibbous, 73% of the Moon is Illuminated
Sep 24
Waning Gibbous
Sep 26
Last Quarter
Oct 4
New
Oct 11
First Quarter
Oct 18
Full

Hourly Weather History & Observations

Time (CDT) Temp. Dew Point Humidity Pressure Visibility Wind Dir Wind Speed Gust Speed Precip Events Conditions
12:56 AM 64.0 °F 48.9 °F 58% 29.82 in 10.0 mi ESE 6.9 mph - N/A   Mostly Cloudy
1:56 AM 61.0 °F 50.0 °F 67% 29.82 in 10.0 mi East 5.8 mph - N/A   Clear
2:56 AM 59.0 °F 51.1 °F 75% 29.83 in 10.0 mi East 4.6 mph - N/A   Clear
3:56 AM 57.9 °F 51.1 °F 78% 29.83 in 10.0 mi NE 4.6 mph - N/A   Clear
4:56 AM 55.9 °F 50.0 °F 80% 29.84 in 10.0 mi NE 3.5 mph - N/A   Mostly Cloudy
5:56 AM 57.0 °F 51.1 °F 81% 29.85 in 10.0 mi East 3.5 mph - N/A   Overcast
6:56 AM 57.0 °F 50.0 °F 77% 29.87 in 10.0 mi East 3.5 mph - N/A   Overcast
7:56 AM 57.0 °F 50.0 °F 77% 29.88 in 10.0 mi East 4.6 mph - N/A   Overcast
8:56 AM 57.9 °F 51.1 °F 78% 29.90 in 10.0 mi ENE 4.6 mph - N/A   Overcast
9:56 AM 60.1 °F 51.1 °F 72% 29.91 in 10.0 mi NE 4.6 mph - N/A   Overcast
10:56 AM 62.1 °F 53.1 °F 72% 29.92 in 10.0 mi North 5.8 mph - N/A   Overcast
11:56 AM 64.9 °F 53.1 °F 65% 29.92 in 10.0 mi North 5.8 mph - N/A   Overcast
12:56 PM 69.1 °F 53.1 °F 57% 29.92 in 10.0 mi North 5.8 mph - N/A   Mostly Cloudy
1:56 PM 71.1 °F 54.0 °F 55% 29.91 in 10.0 mi North 8.1 mph - N/A   Mostly Cloudy
2:56 PM 73.0 °F 53.1 °F 49% 29.90 in 10.0 mi East 6.9 mph - N/A   Mostly Cloudy
3:56 PM 75.0 °F 54.0 °F 48% 29.90 in 10.0 mi ESE 8.1 mph - N/A   Mostly Cloudy
4:56 PM 73.9 °F 52.0 °F 46% 29.90 in 10.0 mi SE 4.6 mph - N/A   Scattered Clouds
5:56 PM 73.9 °F 52.0 °F 46% 29.90 in 10.0 mi ESE 3.5 mph - N/A   Partly Cloudy
6:56 PM 69.1 °F 53.1 °F 57% 29.90 in 10.0 mi SE 5.8 mph - N/A   Clear
7:56 PM 63.0 °F 53.1 °F 70% 29.91 in 10.0 mi Calm Calm - N/A   Clear
8:56 PM 59.0 °F 53.1 °F 81% 29.91 in 10.0 mi Calm Calm - N/A   Clear
9:56 PM 59.0 °F 53.1 °F 81% 29.92 in 10.0 mi East 4.6 mph - N/A   Clear
10:56 PM 55.9 °F 52.0 °F 87% 29.92 in 10.0 mi East 3.5 mph - N/A   Clear
11:56 PM 57.0 °F 53.1 °F 87% 29.91 in 10.0 mi ESE 3.5 mph - N/A   Clear